Time,TemperatureF,DewpointF,PressureIn,WindDirection,WindDirectionDegrees,WindSpeedMPH,WindSpeedGustMPH,Humidity,HourlyPrecipIn,Conditions,Clouds,dailyrainin,SoftwareType,DateUTC
2013-07-17 00:01:00,65.0,60.0,-100.00,NE,45,7.0,8.0,84,0.00,,,-99.99,,2013-07-17 06:01:00,
2013-07-17 00:22:00,65.0,60.0,-100.00,ENE,59,6.0,7.0,84,0.00,,,-99.99,,2013-07-17 06:22:00,
2013-07-17 00:32:00,65.0,60.0,-100.00,ENE,59,6.0,7.0,84,0.00,,,-99.99,,2013-07-17 06:32:00,
2013-07-17 00:52:00,65.0,60.0,-100.00,NW,313,5.0,6.0,84,0.00,,,-99.99,,2013-07-17 06:52:00,
2013-07-17 01:01:00,65.0,60.0,-100.00,NW,313,5.0,6.0,84,0.00,,,-99.99,,2013-07-17 07:01:00,
2013-07-17 01:22:00,63.0,60.0,-100.00,NNW,340,7.0,8.0,89,0.00,,,-99.99,,2013-07-17 07:22:00,
2013-07-17 01:32:00,63.0,60.0,-100.00,NNW,340,7.0,8.0,89,0.00,,,-99.99,,2013-07-17 07:32:00,
2013-07-17 01:42:00,63.0,60.0,-100.00,NNE,17,8.0,9.0,90,0.00,,,-99.99,,2013-07-17 07:42:00,
2013-07-17 01:52:00,63.0,60.0,-100.00,NNE,17,8.0,9.0,90,0.00,,,-99.99,,2013-07-17 07:52:00,
2013-07-17 02:01:00,63.0,60.0,-100.00,NNE,17,8.0,9.0,90,0.00,,,-99.99,,2013-07-17 08:01:00,
2013-07-17 02:11:00,63.0,60.0,-100.00,NNE,17,8.0,9.0,90,0.00,,,-99.99,,2013-07-17 08:11:00,
2013-07-17 02:30:00,63.0,60.0,-100.00,North,0,6.0,7.0,90,0.00,,,-99.99,,2013-07-17 08:30:00,
2013-07-17 02:43:00,64.0,60.0,-100.00,North,0,7.0,7.0,89,0.00,,,-99.99,,2013-07-17 08:43:00,
2013-07-17 02:53:00,64.0,60.0,-100.00,North,0,7.0,7.0,89,0.00,,,-99.99,,2013-07-17 08:53:00,
2013-07-17 03:01:00,64.0,60.0,-100.00,North,0,7.0,7.0,89,0.00,,,-99.99,,2013-07-17 09:01:00,
2013-07-17 03:11:00,63.0,60.0,-100.00,North,0,6.0,7.0,90,0.00,,,-99.99,,2013-07-17 09:11:00,
2013-07-17 03:22:00,63.0,60.0,-100.00,North,0,6.0,7.0,90,0.00,,,-99.99,,2013-07-17 09:22:00,
2013-07-17 03:43:00,63.0,60.0,-100.00,North,360,9.0,11.0,87,0.00,,,-99.99,,2013-07-17 09:43:00,
2013-07-17 03:52:00,63.0,60.0,-100.00,North,360,9.0,11.0,87,0.00,,,-99.99,,2013-07-17 09:52:00,
2013-07-17 04:01:00,63.0,60.0,-100.00,North,360,9.0,11.0,87,0.00,,,-99.99,,2013-07-17 10:01:00,
2013-07-17 04:11:00,63.0,60.0,-100.00,NNE,17,9.0,11.0,89,0.00,,,-99.99,,2013-07-17 10:11:00,
2013-07-17 04:22:00,63.0,60.0,-100.00,NNE,17,9.0,11.0,89,0.00,,,-99.99,,2013-07-17 10:22:00,
2013-07-17 04:32:00,63.0,60.0,-100.00,NNE,17,9.0,11.0,89,0.00,,,-99.99,,2013-07-17 10:32:00,
2013-07-17 04:43:00,62.0,59.0,-100.00,NNE,18,8.0,10.0,91,0.00,,,-99.99,,2013-07-17 10:43:00,
2013-07-17 04:52:00,62.0,59.0,-100.00,NNE,18,8.0,10.0,91,0.00,,,-99.99,,2013-07-17 10:52:00,
2013-07-17 05:01:00,62.0,59.0,-100.00,NNE,18,8.0,10.0,91,0.00,,,-99.99,,2013-07-17 11:01:00,
2013-07-17 05:11:00,61.0,59.0,-100.00,NNW,336,6.0,7.0,91,0.00,,,-99.99,,2013-07-17 11:11:00,
2013-07-17 05:22:00,61.0,59.0,-100.00,NNW,336,6.0,7.0,91,0.00,,,-99.99,,2013-07-17 11:22:00,
2013-07-17 05:32:00,61.0,59.0,-100.00,NNW,336,6.0,7.0,91,0.00,,,-99.99,,2013-07-17 11:32:00,
2013-07-17 05:52:00,61.0,59.0,-100.00,NNE,17,9.0,11.0,92,0.00,,,-99.99,,2013-07-17 11:52:00,
2013-07-17 06:01:00,61.0,59.0,-100.00,NNE,17,9.0,11.0,92,0.00,,,-99.99,,2013-07-17 12:01:00,
2013-07-17 06:32:00,61.0,59.0,-100.00,North,356,6.0,7.0,93,0.00,,,-99.99,,2013-07-17 12:32:00,
2013-07-17 06:42:00,61.0,58.0,-100.00,NNW,342,6.0,7.0,93,0.00,,,-99.99,,2013-07-17 12:42:00,
2013-07-17 06:53:00,61.0,58.0,-100.00,NNW,342,6.0,7.0,93,0.00,,,-99.99,,2013-07-17 12:53:00,
2013-07-17 07:01:00,61.0,58.0,-100.00,NNW,342,6.0,7.0,93,0.00,,,-99.99,,2013-07-17 13:01:00,
2013-07-17 07:22:00,63.0,59.0,-100.00,North,353,8.0,9.0,89,0.00,,,-99.99,,2013-07-17 13:22:00,
2013-07-17 07:32:00,63.0,59.0,-100.00,North,353,8.0,9.0,89,0.00,,,-99.99,,2013-07-17 13:32:00,
2013-07-17 07:52:00,64.0,59.0,-100.00,North,357,9.0,11.0,86,0.00,,,-99.99,,2013-07-17 13:52:00,
2013-07-17 08:02:00,64.0,59.0,-100.00,North,357,9.0,11.0,86,0.00,,,-99.99,,2013-07-17 14:02:00,
2013-07-17 08:11:00,64.0,59.0,-100.00,North,357,9.0,11.0,86,0.00,,,-99.99,,2013-07-17 14:11:00,
2013-07-17 08:43:00,67.0,60.0,-100.00,North,3,8.0,10.0,79,0.00,,,-99.99,,2013-07-17 14:43:00,
2013-07-17 08:52:00,67.0,60.0,-100.00,North,3,8.0,10.0,79,0.00,,,-99.99,,2013-07-17 14:52:00,
2013-07-17 09:00:00,71.0,61.0,-100.00,NE,35,12.0,14.0,69,0.00,,,-99.99,,2013-07-17 15:00:00,
2013-07-17 09:01:00,67.0,60.0,-100.00,North,3,8.0,10.0,79,0.00,,,-99.99,,2013-07-17 15:01:00,
2013-07-17 09:12:00,71.0,60.0,-100.00,NNE,16,9.0,10.0,69,0.00,,,-99.99,,2013-07-17 15:12:00,
2013-07-17 09:21:00,71.0,60.0,-100.00,NNE,16,9.0,10.0,69,0.00,,,-99.99,,2013-07-17 15:21:00,
2013-07-17 09:32:00,71.0,61.0,-100.00,NE,35,12.0,14.0,69,0.00,,,-99.99,,2013-07-17 15:32:00,
2013-07-17 09:42:00,71.0,61.0,-100.00,NE,35,12.0,14.0,69,0.00,,,-99.99,,2013-07-17 15:42:00,
2013-07-17 09:52:00,71.0,61.0,-100.00,NE,35,12.0,14.0,69,0.00,,,-99.99,,2013-07-17 15:52:00,
2013-07-17 10:00:00,73.0,60.0,-100.00,NE,41,6.0,8.0,64,0.00,,,-99.99,,2013-07-17 16:00:00,
2013-07-17 10:21:00,72.0,60.0,-100.00,NNE,25,6.0,7.0,67,0.00,,,-99.99,,2013-07-17 16:21:00,
2013-07-17 10:42:00,73.0,60.0,-100.00,NE,41,6.0,8.0,64,0.00,,,-99.99,,2013-07-17 16:42:00,
2013-07-17 10:52:00,73.0,60.0,-100.00,NE,41,6.0,8.0,64,0.00,,,-99.99,,2013-07-17 16:52:00,
2013-07-17 11:11:00,77.0,60.0,-100.00,NNE,16,3.0,4.0,57,0.00,,,-99.99,,2013-07-17 17:11:00,
2013-07-17 11:21:00,77.0,60.0,-100.00,NNE,16,3.0,4.0,57,0.00,,,-99.99,,2013-07-17 17:21:00,
2013-07-17 11:32:00,77.0,60.0,-100.00,NNE,16,3.0,4.0,57,0.00,,,-99.99,,2013-07-17 17:32:00,
2013-07-17 11:52:00,79.0,58.0,-100.00,NW,320,3.0,4.0,48,0.00,,,-99.99,,2013-07-17 17:52:00,
2013-07-17 12:01:00,79.0,58.0,-100.00,NW,320,3.0,4.0,48,0.00,,,-99.99,,2013-07-17 18:01:00,
2013-07-17 12:11:00,79.0,58.0,-100.00,NW,320,3.0,4.0,48,0.00,,,-99.99,,2013-07-17 18:11:00,
2013-07-17 12:22:00,80.0,58.0,-100.00,SSE,150,5.0,9.0,46,0.00,,,-99.99,,2013-07-17 18:22:00,
2013-07-17 12:32:00,80.0,58.0,-100.00,SSE,150,5.0,9.0,46,0.00,,,-99.99,,2013-07-17 18:32:00,
2013-07-17 12:43:00,80.0,58.0,-100.00,SSE,150,5.0,9.0,46,0.00,,,-99.99,,2013-07-17 18:43:00,
2013-07-17 12:52:00,80.0,58.0,-100.00,SSE,150,5.0,9.0,46,0.00,,,-99.99,,2013-07-17 18:52:00,
2013-07-17 13:11:00,81.0,59.0,-100.00,SE,126,4.0,6.0,48,0.00,,,-99.99,,2013-07-17 19:11:00,
2013-07-17 13:22:00,81.0,59.0,-100.00,SE,126,4.0,6.0,48,0.00,,,-99.99,,2013-07-17 19:22:00,
2013-07-17 13:32:00,82.0,60.0,-100.00,SSE,160,6.0,8.0,47,0.00,,,-99.99,,2013-07-17 19:32:00,
2013-07-17 13:43:00,82.0,60.0,-100.00,SSE,160,6.0,8.0,47,0.00,,,-99.99,,2013-07-17 19:43:00,
2013-07-17 13:53:00,82.0,60.0,-100.00,SSE,160,6.0,8.0,47,0.00,,,-99.99,,2013-07-17 19:53:00,
2013-07-17 14:01:00,85.0,60.0,-100.00,South,188,8.0,13.0,42,0.00,,,-99.99,,2013-07-17 20:01:00,
2013-07-17 14:11:00,85.0,60.0,-100.00,South,188,8.0,13.0,42,0.00,,,-99.99,,2013-07-17 20:11:00,
2013-07-17 14:22:00,85.0,60.0,-100.00,South,188,8.0,13.0,42,0.00,,,-99.99,,2013-07-17 20:22:00,
2013-07-17 14:43:00,85.0,60.0,-100.00,SSE,162,11.0,15.0,43,0.00,,,-99.99,,2013-07-17 20:43:00,
2013-07-17 14:52:00,85.0,60.0,-100.00,SSE,162,11.0,15.0,43,0.00,,,-99.99,,2013-07-17 20:52:00,
2013-07-17 15:01:00,88.0,58.0,-100.00,South,174,9.0,12.0,37,0.00,,,-99.99,,2013-07-17 21:01:00,
2013-07-17 15:12:00,88.0,58.0,-100.00,South,174,9.0,12.0,37,0.00,,,-99.99,,2013-07-17 21:12:00,
2013-07-17 15:22:00,88.0,58.0,-100.00,South,174,9.0,12.0,37,0.00,,,-99.99,,2013-07-17 21:22:00,
2013-07-17 15:32:00,89.0,58.0,-100.00,South,174,9.0,13.0,36,0.00,,,-99.99,,2013-07-17 21:32:00,
2013-07-17 15:42:00,89.0,58.0,-100.00,South,174,9.0,13.0,36,0.00,,,-99.99,,2013-07-17 21:42:00,
2013-07-17 15:52:00,89.0,58.0,-100.00,South,174,9.0,13.0,36,0.00,,,-99.99,,2013-07-17 21:52:00,
2013-07-17 16:01:00,88.0,56.0,-100.00,South,171,11.0,14.0,34,0.00,,,-99.99,,2013-07-17 22:01:00,
2013-07-17 16:11:00,88.0,56.0,-100.00,South,171,11.0,14.0,34,0.00,,,-99.99,,2013-07-17 22:11:00,
2013-07-17 16:21:00,88.0,56.0,-100.00,South,171,11.0,14.0,34,0.00,,,-99.99,,2013-07-17 22:21:00,
2013-07-17 16:32:00,88.0,54.0,-100.00,SSW,209,8.0,10.0,31,0.00,,,-99.99,,2013-07-17 22:32:00,
2013-07-17 16:43:00,88.0,54.0,-100.00,SSW,209,8.0,10.0,31,0.00,,,-99.99,,2013-07-17 22:43:00,
2013-07-17 17:43:00,90.0,47.0,-100.00,SSW,205,9.0,12.0,23,0.00,,,-99.99,,2013-07-17 23:43:00,
2013-07-17 17:52:00,90.0,47.0,-100.00,SSW,205,9.0,12.0,23,0.00,,,-99.99,,2013-07-17 23:52:00,
2013-07-17 18:11:00,88.0,50.0,-100.00,SSW,200,7.0,10.0,27,0.00,,,-99.99,,2013-07-18 00:11:00,
2013-07-17 18:22:00,88.0,50.0,-100.00,SSW,200,7.0,10.0,27,0.00,,,-99.99,,2013-07-18 00:22:00,
2013-07-17 18:33:00,90.0,47.0,-100.00,SSW,195,7.0,10.0,22,0.00,,,-99.99,,2013-07-18 00:33:00,
2013-07-17 18:43:00,90.0,47.0,-100.00,SSW,195,7.0,10.0,22,0.00,,,-99.99,,2013-07-18 00:43:00,
2013-07-17 18:52:00,90.0,47.0,-100.00,SSW,195,7.0,10.0,22,0.00,,,-99.99,,2013-07-18 00:52:00,
2013-07-17 19:01:00,88.0,56.0,-100.00,South,186,4.0,7.0,34,0.00,,,-99.99,,2013-07-18 01:01:00,
2013-07-17 19:11:00,88.0,56.0,-100.00,South,186,4.0,7.0,34,0.00,,,-99.99,,2013-07-18 01:11:00,
2013-07-17 19:22:00,88.0,56.0,-100.00,South,186,4.0,7.0,34,0.00,,,-99.99,,2013-07-18 01:22:00,
2013-07-17 23:21:00,70.0,61.0,-100.00,South,175,5.0,6.0,73,0.00,,,0.00,,2013-07-18 05:21:00,
2013-07-17 23:32:00,70.0,61.0,-100.00,South,175,5.0,6.0,73,0.00,,,0.00,,2013-07-18 05:32:00,
2013-07-17 23:52:00,68.0,60.0,-100.00,ESE,103,4.0,6.0,76,0.00,,,0.00,,2013-07-18 05:52:00,